When you browse on this site, cookies collect data to enhance your experience and personalize the content and advertising you see.
Visit our Privacy Policy to learn more. By continuing to use the site, you agree to this use of cookies and data.

Previsão horária em Urishka

Hoje, 4 Julho, Sábado

Tempo Temperatura Precipitação Vento Pressão Humidade
00:00 +20°C° 0 mm 1 m/s 748 mmHg 93%
01:00 +19°C° 0 mm 2 m/s 748 mmHg 93%
02:00 +19°C° 0 mm 2 m/s 748 mmHg 93%
03:00 +19°C° 0 mm 2 m/s 748 mmHg 90%
04:00 +20°C° 0 mm 2 m/s 748 mmHg 89%
05:00 +20°C° 0 mm 2 m/s 748 mmHg 88%
06:00 +21°C° 0 mm 2 m/s 748 mmHg 87%
07:00 +22°C° 0 mm 3 m/s 748 mmHg 83%
08:00 +25°C° 0 mm 3 m/s 748 mmHg 79%
09:00 +26°C° 0 mm 4 m/s 749 mmHg 74%
10:00 +27°C° 0 mm 4 m/s 748 mmHg 70%
11:00 +28°C° 0 mm 4 m/s 748 mmHg 66%
12:00 +29°C° 0 mm 4 m/s 748 mmHg 62%
13:00 +30°C° 0.2 mm 4 m/s 747 mmHg 62%
14:00 +30°C° 0.2 mm 4 m/s 747 mmHg 63%
15:00 +30°C° 0.2 mm 4 m/s 747 mmHg 63%
16:00 +29°C° 0.7 mm 4 m/s 747 mmHg 68%
17:00 +28°C° 0.7 mm 4 m/s 746 mmHg 73%
18:00 +27°C° 0.7 mm 3 m/s 746 mmHg 79%
19:00 +26°C° 0.1 mm 3 m/s 746 mmHg 81%
20:00 +25°C° 0.1 mm 3 m/s 746 mmHg 83%
21:00 +24°C° 0.1 mm 3 m/s 746 mmHg 85%
22:00 +22°C° 0.7 mm 3 m/s 746 mmHg 86%
23:00 +21°C° 0.7 mm 3 m/s 746 mmHg 87%

Amanhã, 5 Julho, Domingo

Tempo Temperatura Precipitação Vento Pressão Humidade
00:00 +21°C° 0.7 mm 3 m/s 746 mmHg 88%
01:00 +20°C° 0.5 mm 3 m/s 746 mmHg 89%
02:00 +19°C° 0.5 mm 3 m/s 746 mmHg 90%
03:00 +19°C° 0.5 mm 3 m/s 746 mmHg 91%
04:00 +19°C° 0.1 mm 2 m/s 746 mmHg 91%
05:00 +20°C° 0.1 mm 2 m/s 746 mmHg 90%
06:00 +20°C° 0.1 mm 2 m/s 746 mmHg 89%
07:00 +23°C° 0 mm 2 m/s 746 mmHg 85%
08:00 +25°C° 0 mm 2 m/s 746 mmHg 81%
09:00 +26°C° 0 mm 2 m/s 746 mmHg 77%
10:00 +27°C° 0 mm 3 m/s 746 mmHg 73%
11:00 +28°C° 0 mm 3 m/s 745 mmHg 69%
12:00 +29°C° 0 mm 3 m/s 745 mmHg 65%
13:00 +28°C° 1 mm 5 m/s 745 mmHg 69%
14:00 +28°C° 1 mm 6 m/s 745 mmHg 72%
15:00 +27°C° 1 mm 7 m/s 745 mmHg 76%
16:00 +27°C° 0.4 mm 5 m/s 745 mmHg 78%
17:00 +26°C° 0.4 mm 3 m/s 745 mmHg 80%
18:00 +25°C° 0.4 mm 1 m/s 745 mmHg 82%
19:00 +24°C° 0 mm 1 m/s 745 mmHg 83%
20:00 +24°C° 0 mm 1 m/s 745 mmHg 84%
21:00 +23°C° 0 mm 1 m/s 745 mmHg 86%
22:00 +22°C° 0 mm 1 m/s 745 mmHg 87%
23:00 +22°C° 0 mm 1 m/s 745 mmHg 88%

Depois de amanhã, 6 Julho, Segunda-feira

Tempo Temperatura Precipitação Vento Pressão Humidade
00:00 +21°C° 0 mm 1 m/s 745 mmHg 89%
01:00 +21°C° 0.1 mm 1 m/s 745 mmHg 90%
02:00 +21°C° 0.1 mm 1 m/s 745 mmHg 91%
03:00 +21°C° 0.1 mm 1 m/s 745 mmHg 92%
04:00 +21°C° 0 mm 1 m/s 745 mmHg 91%
05:00 +22°C° 0 mm 1 m/s 745 mmHg 90%
06:00 +23°C° 0 mm 1 m/s 745 mmHg 89%
07:00 +24°C° 0 mm 1 m/s 745 mmHg 83%
08:00 +25°C° 0 mm 2 m/s 745 mmHg 78%
09:00 +27°C° 0 mm 2 m/s 745 mmHg 73%
10:00 +28°C° 0 mm 2 m/s 745 mmHg 69%
11:00 +29°C° 0 mm 3 m/s 745 mmHg 65%
12:00 +30°C° 0 mm 3 m/s 745 mmHg 61%
13:00 +30°C° 0.1 mm 3 m/s 745 mmHg 61%
14:00 +30°C° 0.1 mm 3 m/s 745 mmHg 60%
15:00 +31°C° 0.1 mm 3 m/s 745 mmHg 59%
16:00 +30°C° 0 mm 2 m/s 745 mmHg 62%
17:00 +30°C° 0 mm 2 m/s 745 mmHg 65%
18:00 +30°C° 0 mm 1 m/s 745 mmHg 68%
19:00 +28°C° 0 mm 1 m/s 745 mmHg 71%
20:00 +26°C° 0 mm 1 m/s 745 mmHg 74%
21:00 +24°C° 0 mm 1 m/s 745 mmHg 76%
22:00 +24°C° 0 mm 1 m/s 745 mmHg 77%
23:00 +23°C° 0 mm 1 m/s 746 mmHg 78%

7 Julho, Terça-feira

Tempo Temperatura Precipitação Vento Pressão Humidade
00:00 +23°C° 0 mm 1 m/s 746 mmHg 78%
01:00 +22°C° 0 mm 1 m/s 746 mmHg 79%
02:00 +22°C° 0 mm 1 m/s 746 mmHg 80%
03:00 +21°C° 0 mm 2 m/s 746 mmHg 81%
04:00 +21°C° 0 mm 2 m/s 746 mmHg 81%
05:00 +23°C° 0 mm 2 m/s 746 mmHg 82%
06:00 +24°C° 0 mm 2 m/s 746 mmHg 82%
07:00 +25°C° 0 mm 2 m/s 746 mmHg 78%
08:00 +27°C° 0 mm 3 m/s 747 mmHg 74%
09:00 +28°C° 0 mm 3 m/s 747 mmHg 70%
10:00 +29°C° 0 mm 3 m/s 747 mmHg 66%
11:00 +30°C° 0 mm 4 m/s 746 mmHg 62%
12:00 +33°C° 0 mm 4 m/s 746 mmHg 58%
13:00 +33°C° 0 mm 4 m/s 746 mmHg 56%
14:00 +33°C° 0 mm 4 m/s 746 mmHg 55%
15:00 +34°C° 0 mm 3 m/s 746 mmHg 53%
16:00 +33°C° 0 mm 3 m/s 746 mmHg 57%
17:00 +33°C° 0 mm 3 m/s 746 mmHg 61%
18:00 +31°C° 0 mm 2 m/s 746 mmHg 65%
19:00 +29°C° 0 mm 2 m/s 746 mmHg 68%
20:00 +27°C° 0 mm 2 m/s 746 mmHg 71%
21:00 +26°C° 0 mm 2 m/s 746 mmHg 74%
22:00 +25°C° 0 mm 2 m/s 746 mmHg 74%
23:00 +24°C° 0 mm 2 m/s 746 mmHg 74%

8 Julho, Quarta-feira

Tempo Temperatura Precipitação Vento Pressão Humidade
00:00 +23°C° 0 mm 2 m/s 746 mmHg 75%
01:00 +23°C° 0 mm 2 m/s 746 mmHg 76%
02:00 +21°C° 0 mm 2 m/s 746 mmHg 78%
03:00 +21°C° 0 mm 2 m/s 746 mmHg 80%
04:00 +23°C° 0 mm 2 m/s 746 mmHg 81%
05:00 +22°C° 0 mm 3 m/s 746 mmHg 81%
06:00 +24°C° 0 mm 3 m/s 746 mmHg 82%
07:00 +25°C° 0 mm 3 m/s 746 mmHg 78%
08:00 +27°C° 0 mm 4 m/s 746 mmHg 74%
09:00 +28°C° 0 mm 4 m/s 746 mmHg 71%
10:00 +29°C° 0 mm 5 m/s 746 mmHg 68%
11:00 +30°C° 0 mm 5 m/s 745 mmHg 65%
12:00 +30°C° 0 mm 5 m/s 745 mmHg 62%
13:00 +30°C° 0.1 mm 5 m/s 745 mmHg 62%
14:00 +30°C° 0.1 mm 5 m/s 745 mmHg 62%
15:00 +30°C° 0.1 mm 6 m/s 744 mmHg 63%
16:00 +30°C° 0.1 mm 5 m/s 744 mmHg 66%
17:00 +29°C° 0.1 mm 4 m/s 744 mmHg 70%
18:00 +29°C° 0.1 mm 4 m/s 744 mmHg 73%
19:00 +28°C° 0 mm 4 m/s 744 mmHg 75%
20:00 +26°C° 0 mm 4 m/s 744 mmHg 78%
21:00 +25°C° 0 mm 4 m/s 743 mmHg 80%
22:00 +25°C° 0 mm 4 m/s 743 mmHg 79%
23:00 +25°C° 0 mm 5 m/s 743 mmHg 78%

9 Julho, Quinta-feira

Tempo Temperatura Precipitação Vento Pressão Humidade
00:00 +23°C° 0 mm 5 m/s 743 mmHg 78%
01:00 +23°C° 0 mm 5 m/s 742 mmHg 76%
02:00 +23°C° 0 mm 5 m/s 742 mmHg 75%
03:00 +23°C° 0 mm 5 m/s 742 mmHg 74%
04:00 +23°C° 0 mm 5 m/s 742 mmHg 75%
05:00 +23°C° 0 mm 5 m/s 742 mmHg 77%
06:00 +23°C° 0 mm 5 m/s 741 mmHg 78%
07:00 +25°C° 0 mm 5 m/s 741 mmHg 75%
08:00 +26°C° 0 mm 5 m/s 741 mmHg 72%
09:00 +28°C° 0 mm 5 m/s 741 mmHg 68%
10:00 +29°C° 0 mm 5 m/s 741 mmHg 64%
11:00 +30°C° 0 mm 5 m/s 741 mmHg 60%
12:00 +33°C° 0 mm 5 m/s 741 mmHg 56%
13:00 +32°C° 0 mm 5 m/s 741 mmHg 59%
14:00 +30°C° 0 mm 5 m/s 741 mmHg 62%
15:00 +29°C° 0 mm 5 m/s 740 mmHg 65%
16:00 +29°C° 0 mm 4 m/s 741 mmHg 65%
17:00 +29°C° 0 mm 3 m/s 741 mmHg 66%
18:00 +29°C° 0 mm 3 m/s 741 mmHg 67%
19:00 +27°C° 0.2 mm 3 m/s 741 mmHg 69%
20:00 +26°C° 0.2 mm 3 m/s 741 mmHg 72%
21:00 +24°C° 0.2 mm 3 m/s 741 mmHg 74%
22:00 +23°C° 0.5 mm 2 m/s 741 mmHg 79%
23:00 +21°C° 0.5 mm 2 m/s 742 mmHg 85%
Mostrar mais